DC9VQ-13 Weather Reports


time (UTC)temp
C
wind
direction
speed
KPH
gust
KPH
rain 1hr
cm
rain 24hr
cm
rain mn
cm
humidity
%
barometer
mb
20260506080855 15 0.0 0.0 0.00 0.33 0.10 85 1005.5
20260506072848 14 0.0 0.0 0.00 0.33 0.10 89 1005.5
20260506071846 14 0.0 0.0 0.00 0.33 0.10 90 1005.5
20260506070844 14 0.0 0.0 0.00 0.33 0.10 91 1005.5
20260506061834 13 0.0 0.0 0.00 0.33 0.10 93 1005.4
20260506060835 13 0.0 0.0 0.00 0.33 0.10 93 1005.4
20260506050821 13 0.0 0.0 0.00 0.33 0.10 93 1005.4
20260506044815 13 0.0 0.0 0.00 0.33 0.10 93 1005.4
20260506043814 13 0.0 0.0 0.00 0.33 0.10 93 1005.4
20260506042812 13 0.0 0.0 0.00 0.33 0.10 93 1005.4
20260506041810 13 0.0 0.0 0.00 0.33 0.10 93 1005.5
20260506040813 13 0.0 0.0 0.00 0.33 0.10 93 1005.5
20260506035805 13 0.0 0.0 0.00 0.33 0.10 93 1005.5
20260506034803 13 0.0 0.0 0.00 0.33 0.10 93 1005.6
20260506033802 13 0.0 0.0 0.00 0.33 0.10 93 1005.6
20260506032800 13 0.0 0.0 0.00 0.33 0.10 93 1005.7
20260506031758 13 0.0 0.0 0.00 0.33 0.10 93 1005.6
20260506030755 13 0.0 0.0 0.00 0.33 0.10 93 1005.6
20260506025753 13 0.0 0.0 0.00 0.33 0.10 93 1005.7
20260506024752 13 0.0 0.0 0.00 0.33 0.10 93 1005.7
20260506023750 13 0.0 0.0 0.00 0.33 0.10 93 1005.7
20260506022748 13 0.0 0.0 0.00 0.33 0.10 93 1005.7
20260506021745 13 0.0 0.0 0.00 0.33 0.10 93 1005.7
20260506020744 13 0.0 0.0 0.00 0.33 0.10 93 1005.8
20260506015742 13 0.0 0.0 0.00 0.33 0.10 92 1005.8
20260506014740 13 0.0 0.0 0.00 0.33 0.10 92 1005.9
20260506013738 13 0.0 0.0 0.00 0.33 0.10 92 1005.9
20260506012735 13 0.0 0.0 0.00 0.33 0.10 92 1005.8
20260506011734 13 0.0 0.0 0.00 0.33 0.10 92 1005.8
20260506010732 13 0.0 0.0 0.03 0.33 0.10 92 1005.9
20260506005730 14 0.0 0.0 0.05 0.33 0.10 92 1005.8
20260506004728 14 0.0 0.0 0.08 0.33 0.10 92 1005.9
20260506003726 14 0.0 0.0 0.10 0.33 0.10 92 1006.0
20260506002724 14 0.0 0.0 0.10 0.33 0.10 92 1006.0
20260506001722 14 0.0 0.0 0.10 0.33 0.10 91 1006.1
20260506000720 14 0.0 0.0 0.08 0.30 0.08 91 1006.2
20260505235718 14 0.0 0.0 0.05 0.28 0.05 91 1006.3
20260505234716 14 0.0 0.0 0.03 0.25 0.03 90 1006.3
20260505233714 14 0.0 0.0 0.00 0.23 0.00 90 1006.3
20260505232711 14 0.0 0.0 0.00 0.23 0.00 89 1006.3
20260505231710 15 0.0 0.0 0.00 0.23 0.00 89 1006.4
20260505230708 15 0.0 0.0 0.00 0.23 0.00 89 1006.4
20260505225706 15 0.0 0.0 0.00 0.23 0.00 89 1006.4
20260505224704 15 0.0 0.0 0.00 0.23 0.00 89 1006.5
20260505223702 15 0.0 0.0 0.00 0.23 0.00 89 1006.6
20260505222700 15 0.0 0.0 0.00 0.23 0.00 88 1006.7
20260505221659 15 0.0 0.0 0.00 0.23 0.00 88 1006.7
20260505220656 15 0.0 0.0 0.00 0.23 0.00 88 1006.8
20260505215653 15 0.0 0.0 0.00 0.23 0.23 88 1006.8
20260505214651 15 0.0 0.0 0.00 0.23 0.23 88 1006.9
20260505213651 15 0.0 0.0 0.00 0.23 0.23 88 1007.0
20260505212647 15 0.0 0.0 0.00 0.23 0.23 88 1007.0
20260505211646 15 0.0 0.0 0.00 0.23 0.23 87 1007.0
20260505210644 15 0.0 0.0 0.00 0.23 0.23 87 1007.1
20260505205642 15 0.0 0.0 0.00 0.23 0.23 87 1007.1
20260505204640 15 0.0 0.0 0.00 0.23 0.23 87 1007.1
20260505203638 15 0.0 0.0 0.00 0.23 0.23 87 1007.1
20260505202636 15 0.0 0.0 0.00 0.23 0.23 87 1007.1
20260505201634 15 0.0 0.0 0.00 0.23 0.23 87 1007.1
20260505200632 15 0.0 0.0 0.00 0.23 0.23 87 1007.0
20260505195630 15 0.0 0.0 0.00 0.23 0.23 87 1007.0
20260505194627 15 0.0 0.0 0.00 0.23 0.23 86 1006.8
20260505193625 15 0.0 0.0 0.00 0.23 0.23 86 1006.9
20260505192624 15 0.0 0.0 0.00 0.23 0.23 86 1006.9
20260505191622 15 0.0 0.0 0.00 0.23 0.23 86 1006.8
20260505190621 15 0.0 0.0 0.00 0.23 0.23 86 1006.8
20260505185618 15 0.0 0.0 0.00 0.23 0.23 86 1006.8
20260505184618 15 0.0 0.0 0.00 0.23 0.23 86 1006.7
20260505183614 15 0.0 0.0 0.00 0.23 0.23 86 1006.7
20260505182612 15 0.0 0.0 0.03 0.23 0.23 86 1006.7
20260505181610 15 0.0 0.0 0.03 0.23 0.23 86 1006.7
20260505180608 15 0.0 0.0 0.03 0.23 0.23 86 1006.8
20260505175605 16 0.0 0.0 0.05 0.23 0.23 86 1006.9
20260505174603 16 0.0 0.0 0.05 0.23 0.23 85 1006.9
20260505173602 16 0.0 0.0 0.08 0.23 0.23 85 1007.0
20260505172600 16 0.0 0.0 0.05 0.20 0.20 85 1007.0
20260505171557 16 0.0 0.0 0.05 0.20 0.20 85 1007.0
20260505170556 16 0.0 0.0 0.08 0.20 0.20 85 1007.0
20260505165554 16 0.0 0.0 0.05 0.18 0.18 84 1007.1
20260505164552 16 0.0 0.0 0.05 0.18 0.18 83 1007.2
20260505163551 17 0.0 0.0 0.05 0.15 0.15 82 1007.2
20260505162547 17 0.0 0.0 0.05 0.15 0.15 82 1007.3
20260505161546 17 0.0 0.0 0.05 0.15 0.15 81 1007.3
20260505160544 17 0.0 0.0 0.03 0.13 0.13 81 1007.4
20260505152536 17 0.0 0.0 0.03 0.10 0.10 77 1007.3
20260505151534 18 0.0 0.0 0.05 0.10 0.10 76 1007.3
20260505150532 18 0.0 0.0 0.05 0.10 0.10 75 1007.4
20260505140520 21 0.0 0.0 0.03 0.03 0.03 60 1006.9
20260505124505 22 0.0 0.0 0.00 0.00 0.00 55 1007.4
20260505123000 22 0.0 0.0 0.00 0.00 0.00 55 1007.5
20260505121959 22 0.0 0.0 0.00 0.00 0.00 54 1007.5
20260505120957 22 0.0 0.0 0.00 0.00 0.00 56 1007.6
20260505115955 22 0.0 0.0 0.00 0.00 0.00 57 1007.6
20260505114953 22 0.0 0.0 0.00 0.00 0.00 56 1007.8
20260505113952 22 0.0 0.0 0.00 0.00 0.00 56 1007.9
20260505112948 22 0.0 0.0 0.00 0.00 0.00 57 1008.0
20260505111947 21 0.0 0.0 0.00 0.00 0.00 58 1008.1
20260505110945 21 0.0 0.0 0.00 0.00 0.00 58 1008.2
20260505101934 20 0.0 0.0 0.00 0.00 0.00 63 1008.6
20260505100933 20 0.0 0.0 0.00 0.00 0.00 65 1008.6
20260505095931 19 0.0 0.0 0.00 0.00 0.00 66 1008.6
20260505094929 19 0.0 0.0 0.00 0.00 0.00 68 1008.6
20260505093926 18 0.0 0.0 0.00 0.00 0.00 70 1008.8
20260505092924 18 0.0 0.0 0.00 0.00 0.00 70 1008.8
20260505091922 18 0.0 0.0 0.00 0.00 0.00 73 1009.0
20260505090921 17 0.0 0.0 0.00 0.00 0.00 74 1009.0
20260505085919 17 0.0 0.0 0.00 0.00 0.00 75 1009.1
20260505084916 17 0.0 0.0 0.00 0.00 0.00 76 1009.2
20260505083915 17 0.0 0.0 0.00 0.00 0.00 77 1009.3
20260505082913 16 0.0 0.0 0.00 0.00 0.00 78 1009.3
20260505081912 16 0.0 0.0 0.00 0.00 0.00 79 1009.3